Погода в Сысоях

Россия / Рязанская область     53°49′36″N   41°04′36″E
темп.,
°C
ветер,
м/с
пор.,
м/с
влажн.,
%
обл.,
%
осадки,
мм/ч
давл.,
гПа
погр.,
м
13 апреля, вт
вт1300:00+10вюв41186100 0.0 1029188
03:00+9юв4128598 0.0 1029186
06:00+8юв4117585 0.0 1029184
09:00+13юв6105168 0.0 1028351
12:00+18ююв68337 0.0 1028823
15:00+20ююв68275 0.0 10261608
18:00+17юв494144 0.0 1026222
21:00+13юв5135150 0.0 1026256
14 апреля, ср
ср1400:00+10юв4116393 0.0 1026184
03:00+9юв4970100 0.0 1025139
06:00+8юв41074100 0.0 1024170
09:00+13юв595383 0.0 1024334
12:00+17юв6736100 0.0 1022854
15:00+19юв673044 0.0 10201484
18:00+17юв4740100 0.0 1019177
21:00+13юв41054100 0.0 1020190
15 апреля, чт
чт1500:00+11юв3758100 0.0 1019103
03:00+9юв346481 0.0 101950
06:00+8вюв3471100 0.0 101953
09:00+13юв345774 0.0 1018271
12:00+18юв344330 0.0 1017970
15:00+20вюв343314 0.0 10162127
18:00+18в354225 0.0 1016126
21:00+14в485689 0.0 1016155
16 апреля, пт
пт1600:00+12в4106391 0.0 1015178
03:00+11вюв3773100 0.3 1016120
06:00+10всв4777100 0.4 1016134
09:00+14в465882 0.8 1017317
12:00+17всв5646100 0.0 1017822
15:00+19всв5542100 0.0 10171500
18:00+17св5951100 0.0 1018434
21:00+13св7136594 0.0 1019499
17 апреля, сб
сб1700:00+10св6128014 0.0 1021510
03:00+7св612855 0.0 1022448
06:00+6св6137410 0.0 1024512
09:00+9всв812525 0.0 1025836
12:00+11всв810380 0.0 10261415
15:00+12св89330 0.0 10261687
18:00+10св89413 0.0 10281530
21:00+6всв712445 0.0 1031782